Voltar ao catálogo

FENGYUN 1C DEB

AtivoPO
NORAD 31546·DEBRIS·🇨🇳 China

Lançado May 10, 1999 de Taiyuan Satellite Launch Center

Loading…

Próximas Passagens (próximas 24 horas)

TLE

AtualizadoSource: Space-Track

Época: Sep 14, 2026, 21:20 UTC

1 31546U 99025BYM 26257.88954263  .00001604  00000-0  77406-3 0  9999
2 31546  98.2249 310.8460 0142605  58.6038 302.8995 14.14675720986911

Acompanhe FENGYUN 1C DEB em tempo real com AllMySat

Download on the App Store